NOZ405 LFPO-LLBG

Flight info

Callsign NOZ405
Flight time N/A
Altitude 35000
Route BUBLI DCT LUPEN DCT BATUB DCT MOMUK DCT GEDSO DCT VEKEN DCT NEMEK DCT MEDUX UM867 KOGAT DCT ERANA UL737 TSL UN130 PIVOS/N0460F370 UN130 MES UL609 ALKIS DCT APLON DCT PIKOG L609 ZUKKO
Aircraft B738/M-SDE2E3FGHIRWXY/LB1

Departure

Time N/A
Airport Paris-Orly Airport (LFPO)

Arrival

Time 2026-05-04 15:26
Airport Ben Gurion International Airport (LLBG)
Time Latitude Longitude Altitude Speed Heading
2026-05-04 12:16 47.37202 11.16595 34621 ft 477 kts 123°
2026-05-04 12:16 47.35505 11.20751 35002 ft 468 kts 123°
2026-05-04 12:16 47.33828 11.24855 34919 ft 465 kts 123°
2026-05-04 12:17 47.30535 11.32891 34960 ft 454 kts 123°
2026-05-04 12:17 47.27262 11.40849 34979 ft 454 kts 124°
2026-05-04 12:18 47.23977 11.48807 34977 ft 455 kts 124°
2026-05-04 12:18 47.20686 11.56766 34976 ft 456 kts 124°
2026-05-04 12:19 47.17379 11.64736 34987 ft 457 kts 124°
2026-05-04 12:19 47.14082 11.72665 34989 ft 458 kts 124°
2026-05-04 12:20 47.10752 11.80657 35012 ft 458 kts 125°
2026-05-04 12:20 47.07453 11.88673 35017 ft 461 kts 122°
2026-05-04 12:21 47.04569 11.97097 35047 ft 463 kts 118°
2026-05-04 12:21 47.01804 12.05649 35039 ft 464 kts 119°
2026-05-04 12:22 46.98997 12.14174 35059 ft 465 kts 119°
2026-05-04 12:22 46.96144 12.22675 35092 ft 466 kts 119°
2026-05-04 12:23 46.93271 12.31172 35090 ft 465 kts 119°
2026-05-04 12:23 46.90401 12.39629 35082 ft 463 kts 118°
2026-05-04 12:24 46.87542 12.48034 35091 ft 460 kts 118°
2026-05-04 12:24 46.84688 12.56394 35084 ft 459 kts 118°
2026-05-04 12:25 46.81856 12.64666 35082 ft 458 kts 118°
2026-05-04 12:25 46.78998 12.72990 35060 ft 459 kts 118°
2026-05-04 12:26 46.76123 12.81333 35080 ft 460 kts 118°
2026-05-04 12:26 46.73755 12.88186 35082 ft 463 kts 118°
2026-05-04 12:27 46.70850 12.96573 35087 ft 465 kts 119°
2026-05-04 12:27 46.67919 13.05004 35077 ft 467 kts 119°
2026-05-04 12:28 46.64969 13.13467 35073 ft 469 kts 118°
2026-05-04 12:28 46.62004 13.21944 35072 ft 470 kts 118°
2026-05-04 12:29 46.59050 13.30369 35076 ft 470 kts 118°
2026-05-04 12:29 46.56028 13.38781 35075 ft 468 kts 123°
2026-05-04 12:30 46.52287 13.46508 35060 ft 466 kts 129°
2026-05-04 12:30 46.48423 13.54008 35083 ft 466 kts 128°
2026-05-04 12:31 46.44557 13.61581 35087 ft 467 kts 128°
2026-05-04 12:31 46.40711 13.69199 35083 ft 469 kts 129°
2026-05-04 12:32 46.34945 13.80632 35078 ft 469 kts 128°
2026-05-04 12:33 46.31082 13.88268 35077 ft 469 kts 128°
2026-05-04 12:33 46.27215 13.95889 35094 ft 470 kts 128°
2026-05-04 12:34 46.23336 14.03508 35078 ft 471 kts 128°
2026-05-04 12:34 46.19471 14.11080 35063 ft 472 kts 128°
2026-05-04 12:35 46.15572 14.18698 35070 ft 472 kts 128°
2026-05-04 12:35 46.11667 14.26307 35085 ft 472 kts 128°
2026-05-04 12:36 46.07748 14.33923 35092 ft 473 kts 128°
2026-05-04 12:36 46.03827 14.41521 35075 ft 473 kts 128°
2026-05-04 12:37 45.99896 14.49120 35079 ft 473 kts 128°
2026-05-04 12:37 45.95966 14.56696 35081 ft 473 kts 128°
2026-05-04 12:38 45.92025 14.64271 35074 ft 473 kts 128°
2026-05-04 12:38 45.88082 14.71832 35059 ft 473 kts 128°
2026-05-04 12:39 45.84157 14.79337 35072 ft 473 kts 128°
2026-05-04 12:39 45.80205 14.86875 35063 ft 472 kts 128°
2026-05-04 12:40 45.76252 14.94392 35072 ft 472 kts 128°
2026-05-04 12:40 45.72298 15.01894 35067 ft 472 kts 128°
2026-05-04 12:41 45.68336 15.09391 35067 ft 472 kts 128°
2026-05-04 12:41 45.64370 15.16876 35060 ft 472 kts 128°
2026-05-04 12:42 45.60405 15.24342 35060 ft 471 kts 128°
2026-05-04 12:42 45.56474 15.31705 35057 ft 471 kts 128°
2026-05-04 12:43 45.52429 15.39061 35060 ft 471 kts 129°
2026-05-04 12:43 45.48359 15.46379 35059 ft 471 kts 129°
2026-05-04 12:44 45.44283 15.53707 35063 ft 472 kts 129°
2026-05-04 12:44 45.40209 15.61032 35075 ft 472 kts 129°
2026-05-04 12:45 45.36120 15.68372 35062 ft 473 kts 128°
2026-05-04 12:45 45.32021 15.75713 35068 ft 474 kts 129°
2026-05-04 12:46 45.27912 15.83052 35062 ft 474 kts 129°
2026-05-04 12:46 45.23797 15.90382 35041 ft 475 kts 129°
2026-05-04 12:47 45.19703 15.97656 35054 ft 475 kts 129°
2026-05-04 12:47 45.15571 16.04977 35057 ft 476 kts 128°
2026-05-04 12:48 45.11429 16.12298 35049 ft 476 kts 128°
2026-05-04 12:48 45.07280 16.19612 35055 ft 476 kts 129°
2026-05-04 12:49 45.03181 16.26820 35055 ft 476 kts 129°
2026-05-04 12:49 44.99026 16.34108 35052 ft 476 kts 128°
2026-05-04 12:50 44.94863 16.41392 35062 ft 476 kts 128°
2026-05-04 12:50 44.90699 16.48659 35067 ft 476 kts 128°
2026-05-04 12:51 44.86555 16.55870 35076 ft 476 kts 128°
2026-05-04 12:51 44.82370 16.63136 35076 ft 477 kts 128°
2026-05-04 12:52 44.78187 16.70379 35071 ft 477 kts 128°
2026-05-04 12:52 44.74003 16.77607 35083 ft 477 kts 128°
2026-05-04 12:53 44.69807 16.84836 35059 ft 476 kts 128°
2026-05-04 12:53 44.65645 16.91989 35080 ft 476 kts 128°
2026-05-04 12:54 44.61436 16.99204 35079 ft 477 kts 128°
2026-05-04 12:54 44.57232 17.06393 35088 ft 476 kts 128°
2026-05-04 12:55 44.53016 17.13584 35079 ft 476 kts 128°
2026-05-04 12:55 44.48814 17.20733 35089 ft 476 kts 128°
2026-05-04 12:56 44.44597 17.27890 35076 ft 476 kts 128°
2026-05-04 12:56 44.40400 17.34994 35082 ft 476 kts 128°
2026-05-04 12:57 44.36179 17.42123 35082 ft 476 kts 129°
2026-05-04 12:57 44.31950 17.49246 35096 ft 476 kts 128°
2026-05-04 12:58 44.27716 17.56361 35091 ft 476 kts 128°
2026-05-04 12:58 44.23476 17.63468 35083 ft 477 kts 129°
2026-05-04 12:59 44.19230 17.70566 35095 ft 476 kts 129°
2026-05-04 12:59 44.14986 17.77644 35098 ft 476 kts 129°
2026-05-04 13:00 44.10736 17.84715 35101 ft 476 kts 129°
2026-05-04 13:00 44.06477 17.91784 35099 ft 477 kts 129°
2026-05-04 13:01 44.02214 17.98842 35107 ft 477 kts 129°
2026-05-04 13:01 43.97936 18.05907 35112 ft 478 kts 128°
2026-05-04 13:02 43.93655 18.12960 35111 ft 478 kts 129°
2026-05-04 13:02 43.89361 18.20016 35103 ft 478 kts 129°
2026-05-04 13:03 43.85099 18.27098 35098 ft 478 kts 127°
2026-05-04 13:03 43.81344 18.34627 35020 ft 479 kts 117°
2026-05-04 13:04 43.78631 18.43037 34914 ft 478 kts 110°
2026-05-04 13:04 43.76979 18.47014 34964 ft 480 kts 130°
2026-05-04 13:04 43.74478 18.50061 35067 ft 478 kts 145°
2026-05-04 13:05 43.68994 18.55279 35109 ft 478 kts 142°
2026-05-04 13:05 43.64033 18.61391 35093 ft 478 kts 133°
2026-05-04 13:06 43.59619 18.68165 35104 ft 478 kts 129°
2026-05-04 13:06 43.55326 18.75207 35110 ft 480 kts 128°
2026-05-04 13:07 43.51017 18.82250 35115 ft 481 kts 129°
2026-05-04 13:07 43.46664 18.89269 35116 ft 483 kts 129°
2026-05-04 13:08 43.42272 18.96299 35111 ft 485 kts 129°
2026-05-04 13:08 43.37862 19.03333 35115 ft 485 kts 129°
2026-05-04 13:09 43.33473 19.10322 35114 ft 486 kts 129°
2026-05-04 13:09 43.29054 19.17341 35121 ft 486 kts 129°
2026-05-04 13:10 43.24627 19.24359 35113 ft 486 kts 129°
2026-05-04 13:10 43.20191 19.31373 35107 ft 485 kts 129°
2026-05-04 13:11 43.15763 19.38358 35110 ft 485 kts 129°
2026-05-04 13:11 43.11367 19.45276 35108 ft 484 kts 129°
2026-05-04 13:12 43.06937 19.52230 35121 ft 484 kts 129°
2026-05-04 13:12 43.02512 19.59160 35113 ft 484 kts 129°
2026-05-04 13:13 42.98090 19.66070 35105 ft 483 kts 129°
2026-05-04 13:13 42.94403 19.71818 35118 ft 483 kts 129°
2026-05-04 13:14 42.89970 19.78715 35096 ft 483 kts 129°
2026-05-04 13:14 42.85533 19.85602 35109 ft 483 kts 128°
2026-05-04 13:15 42.80374 19.93591 35127 ft 483 kts 128°
2026-05-04 13:15 42.76652 19.99342 35145 ft 484 kts 129°
2026-05-04 13:16 42.72233 20.06281 35132 ft 485 kts 127°
2026-05-04 13:16 42.67985 20.13340 35132 ft 486 kts 126°
2026-05-04 13:17 42.63706 20.20485 35136 ft 487 kts 126°
2026-05-04 13:17 42.59405 20.27593 35129 ft 488 kts 126°
2026-05-04 13:18 42.55085 20.34685 35131 ft 488 kts 126°
2026-05-04 13:18 42.50759 20.41762 35130 ft 488 kts 126°
2026-05-04 13:19 42.46422 20.48843 35158 ft 488 kts 126°
2026-05-04 13:19 42.42080 20.55917 35135 ft 488 kts 126°
2026-05-04 13:20 42.37735 20.62979 35136 ft 488 kts 126°
2026-05-04 13:20 42.33414 20.69987 35137 ft 487 kts 126°
2026-05-04 13:21 42.29068 20.77017 35130 ft 487 kts 126°
2026-05-04 13:21 42.24722 20.84031 35130 ft 487 kts 126°
2026-05-04 13:22 42.20378 20.91029 35131 ft 486 kts 126°
2026-05-04 13:22 42.16037 20.98005 35161 ft 484 kts 126°
2026-05-04 13:23 42.11687 21.04973 35115 ft 485 kts 127°
2026-05-04 13:23 42.06938 21.11481 35131 ft 488 kts 134°
2026-05-04 13:24 42.01962 21.17615 35125 ft 489 kts 134°
2026-05-04 13:24 41.96944 21.23815 35123 ft 490 kts 134°
2026-05-04 13:25 41.89462 21.33211 35106 ft 490 kts 134°
2026-05-04 13:25 41.84492 21.39472 35111 ft 490 kts 134°
2026-05-04 13:26 41.79519 21.45721 35103 ft 489 kts 134°
2026-05-04 13:26 41.74564 21.51928 35084 ft 490 kts 134°
2026-05-04 13:27 41.69592 21.58143 35099 ft 488 kts 134°
2026-05-04 13:27 41.64627 21.64334 35095 ft 489 kts 134°
2026-05-04 13:28 41.59650 21.70525 35095 ft 489 kts 134°
2026-05-04 13:28 41.54660 21.76721 35112 ft 490 kts 134°
2026-05-04 13:29 41.49659 21.82916 35106 ft 492 kts 134°
2026-05-04 13:29 41.44639 21.89121 35108 ft 493 kts 134°
2026-05-04 13:30 41.39597 21.95338 35103 ft 493 kts 134°
2026-05-04 13:30 41.34559 22.01538 35106 ft 493 kts 134°
2026-05-04 13:31 41.29518 22.07728 35108 ft 492 kts 134°
2026-05-04 13:31 41.24481 22.13899 35140 ft 492 kts 134°
2026-05-04 13:32 41.19465 22.20035 35115 ft 492 kts 134°
2026-05-04 13:32 41.14377 22.26116 35073 ft 493 kts 137°
2026-05-04 13:33 41.09074 22.31842 35100 ft 491 kts 139°
2026-05-04 13:33 41.03729 22.37481 35109 ft 490 kts 139°
2026-05-04 13:34 40.98418 22.43133 35100 ft 490 kts 139°
2026-05-04 13:34 40.93150 22.48774 35124 ft 490 kts 139°
2026-05-04 13:35 40.85198 22.57279 35102 ft 490 kts 139°
2026-05-04 13:36 40.79897 22.62931 35104 ft 490 kts 139°
2026-05-04 13:36 40.74589 22.68576 35105 ft 490 kts 139°
2026-05-04 13:37 40.69284 22.74206 35100 ft 490 kts 139°
2026-05-04 13:37 40.63969 22.79835 35135 ft 489 kts 139°
2026-05-04 13:38 40.58657 22.85449 35115 ft 489 kts 139°
2026-05-04 13:38 40.53353 22.91045 35106 ft 488 kts 139°
2026-05-04 13:39 40.48064 22.96613 35111 ft 487 kts 139°
2026-05-04 13:39 40.43043 23.02463 35116 ft 484 kts 131°
2026-05-04 13:40 40.38440 23.08904 35105 ft 482 kts 130°
2026-05-04 13:40 40.33885 23.15355 35118 ft 481 kts 131°
2026-05-04 13:41 40.29317 23.21712 35104 ft 478 kts 131°
2026-05-04 13:41 40.24751 23.27994 35104 ft 474 kts 131°
2026-05-04 13:42 40.17939 23.37321 35097 ft 471 kts 131°
2026-05-04 13:42 40.13387 23.43543 35127 ft 476 kts 131°
2026-05-04 13:43 40.08829 23.49764 35102 ft 476 kts 131°
2026-05-04 13:43 40.04270 23.55968 35091 ft 472 kts 131°
2026-05-04 13:44 39.99741 23.62121 35096 ft 468 kts 132°
2026-05-04 13:44 39.95238 23.68227 35101 ft 466 kts 132°
2026-05-04 13:45 39.90751 23.74299 35097 ft 465 kts 132°
2026-05-04 13:45 39.86260 23.80364 35099 ft 465 kts 132°
2026-05-04 13:46 39.81785 23.86395 35106 ft 466 kts 132°
2026-05-04 13:46 39.77275 23.92463 35100 ft 467 kts 132°
2026-05-04 13:47 39.72746 23.98542 35104 ft 468 kts 132°
2026-05-04 13:47 39.68207 24.04623 35106 ft 469 kts 132°
2026-05-04 13:48 39.63662 24.10699 35112 ft 469 kts 133°
2026-05-04 13:48 39.59109 24.16774 35091 ft 469 kts 132°
2026-05-04 13:49 39.54559 24.22833 35101 ft 469 kts 133°
2026-05-04 13:49 39.50033 24.28848 35107 ft 469 kts 133°
2026-05-04 13:50 39.45471 24.34899 35105 ft 469 kts 133°
2026-05-04 13:50 39.40905 24.40945 35117 ft 470 kts 133°
2026-05-04 13:51 39.36334 24.46986 35112 ft 470 kts 133°
2026-05-04 13:51 39.31770 24.53027 35106 ft 470 kts 132°
2026-05-04 13:52 39.24975 24.62157 35099 ft 470 kts 132°
2026-05-04 13:53 39.20446 24.68229 35104 ft 470 kts 132°
2026-05-04 13:53 39.15901 24.74299 35103 ft 471 kts 132°
2026-05-04 13:54 39.09052 24.83405 35103 ft 472 kts 133°
2026-05-04 13:55 39.02126 24.92377 35101 ft 473 kts 133°
2026-05-04 13:55 38.95138 25.01396 35127 ft 475 kts 133°
2026-05-04 13:56 38.90475 25.07415 35111 ft 476 kts 133°
2026-05-04 13:57 38.83446 25.16470 35103 ft 478 kts 133°
2026-05-04 13:58 38.74038 25.28544 35093 ft 478 kts 133°
2026-05-04 13:58 38.67771 25.36561 35101 ft 478 kts 134°
2026-05-04 13:59 38.62297 25.43546 35095 ft 478 kts 134°
2026-05-04 14:00 38.56029 25.51525 35094 ft 477 kts 134°
2026-05-04 14:00 38.48967 25.60492 35096 ft 477 kts 134°
2026-05-04 14:01 38.44250 25.66466 35101 ft 477 kts 134°
2026-05-04 14:02 38.37180 25.75402 35089 ft 477 kts 134°
2026-05-04 14:02 38.32470 25.81376 35094 ft 477 kts 134°
2026-05-04 14:03 38.27764 25.87352 35099 ft 478 kts 134°
2026-05-04 14:03 38.22967 25.93222 35089 ft 480 kts 137°
2026-05-04 14:04 38.15348 26.01527 35095 ft 481 kts 138°
2026-05-04 14:04 38.10320 26.07041 35075 ft 481 kts 138°
2026-05-04 14:05 38.02720 26.15416 35074 ft 482 kts 138°
2026-05-04 14:06 37.97638 26.21000 35068 ft 484 kts 138°
2026-05-04 14:06 37.92542 26.26591 35075 ft 485 kts 138°
2026-05-04 14:07 37.87434 26.32186 35061 ft 485 kts 138°
2026-05-04 14:07 37.82361 26.37739 35067 ft 484 kts 138°
2026-05-04 14:08 37.77263 26.43324 35049 ft 484 kts 138°
2026-05-04 14:08 37.72168 26.48895 35055 ft 484 kts 139°
2026-05-04 14:09 37.64509 26.57233 35067 ft 485 kts 139°
2026-05-04 14:10 37.56818 26.65553 35044 ft 485 kts 139°
2026-05-04 14:10 37.51726 26.71055 35050 ft 484 kts 139°
2026-05-04 14:11 37.46612 26.76572 35043 ft 483 kts 139°
2026-05-04 14:11 37.38973 26.84831 35041 ft 482 kts 137°
2026-05-04 14:12 37.34085 26.90588 35042 ft 481 kts 135°
2026-05-04 14:13 37.26870 26.99337 35027 ft 480 kts 135°
2026-05-04 14:13 37.22028 27.05139 35017 ft 480 kts 136°
2026-05-04 14:14 37.17178 27.10909 35034 ft 481 kts 136°
2026-05-04 14:14 37.09861 27.19585 35040 ft 484 kts 136°
2026-05-04 14:15 36.99996 27.31250 35029 ft 495 kts 136°
2026-05-04 14:16 36.92512 27.40071 34991 ft 488 kts 136°
2026-05-04 14:17 36.85132 27.48745 35011 ft 486 kts 137°
2026-05-04 14:18 36.77681 27.57478 35020 ft 492 kts 137°
2026-05-04 14:19 36.67645 27.69203 35007 ft 493 kts 137°
2026-05-04 14:19 36.62706 27.75079 34993 ft 489 kts 131°
2026-05-04 14:20 36.58535 27.81705 34997 ft 486 kts 126°
2026-05-04 14:20 36.54477 27.88498 35016 ft 492 kts 126°
2026-05-04 14:21 36.48234 27.98745 35002 ft 497 kts 127°
2026-05-04 14:21 36.44012 28.05566 34999 ft 498 kts 127°
2026-05-04 14:22 36.39776 28.12382 35005 ft 498 kts 127°
2026-05-04 14:22 36.35575 28.19134 34991 ft 497 kts 127°
2026-05-04 14:23 36.29256 28.29271 34979 ft 493 kts 127°
2026-05-04 14:24 36.25062 28.35984 34948 ft 492 kts 128°
2026-05-04 14:24 36.20867 28.42685 34976 ft 494 kts 128°
2026-05-04 14:25 36.16626 28.49445 34969 ft 499 kts 128°
2026-05-04 14:25 36.10208 28.59651 34950 ft 500 kts 128°
2026-05-04 14:26 36.05951 28.66404 34930 ft 495 kts 128°
2026-05-04 14:26 36.01730 28.73088 34929 ft 492 kts 128°
2026-05-04 14:27 35.97498 28.79773 34924 ft 496 kts 128°
2026-05-04 14:27 35.93217 28.86523 34938 ft 501 kts 128°
2026-05-04 14:28 35.88936 28.93261 34926 ft 501 kts 128°
2026-05-04 14:28 35.84651 28.99995 34910 ft 498 kts 129°
2026-05-04 14:29 35.76077 29.13423 34911 ft 498 kts 129°
2026-05-04 14:30 35.71785 29.20125 34913 ft 499 kts 129°
2026-05-04 14:31 35.65322 29.30193 34915 ft 500 kts 129°
2026-05-04 14:32 35.56675 29.43619 34905 ft 502 kts 130°
2026-05-04 14:32 35.52330 29.50346 34895 ft 503 kts 130°
2026-05-04 14:33 35.47981 29.57066 34890 ft 503 kts 130°
2026-05-04 14:33 35.43657 29.63733 34893 ft 503 kts 130°
2026-05-04 14:34 35.39299 29.70441 34901 ft 503 kts 130°
2026-05-04 14:34 35.34943 29.77134 34890 ft 503 kts 130°
2026-05-04 14:35 35.30580 29.83824 34897 ft 502 kts 131°
2026-05-04 14:35 35.26216 29.90503 34895 ft 502 kts 131°
2026-05-04 14:36 35.21854 29.97169 34894 ft 502 kts 131°
2026-05-04 14:36 35.17518 30.03856 34895 ft 502 kts 130°
2026-05-04 14:37 35.13281 30.10622 34894 ft 501 kts 129°
2026-05-04 14:37 35.09055 30.17401 34898 ft 501 kts 130°
2026-05-04 14:38 35.04803 30.24173 34904 ft 503 kts 130°
2026-05-04 14:38 35.00553 30.30908 34906 ft 505 kts 130°
2026-05-04 14:39 34.96257 30.37697 34908 ft 507 kts 130°
2026-05-04 14:39 34.91944 30.44504 34907 ft 508 kts 131°
2026-05-04 14:40 34.85437 30.54749 34899 ft 510 kts 131°
2026-05-04 14:40 34.81089 30.61578 34905 ft 510 kts 131°
2026-05-04 14:41 34.76738 30.68399 34907 ft 510 kts 131°
2026-05-04 14:42 34.68040 30.81997 34900 ft 509 kts 132°
2026-05-04 14:42 34.63687 30.88780 34919 ft 510 kts 132°
2026-05-04 14:43 34.59321 30.95572 34916 ft 511 kts 132°
2026-05-04 14:43 34.54938 31.02377 34910 ft 512 kts 133°
2026-05-04 14:44 34.51287 31.08035 34912 ft 513 kts 133°
2026-05-04 14:44 34.46880 31.14853 34919 ft 515 kts 133°
2026-05-04 14:45 34.42455 31.21687 34922 ft 516 kts 133°
2026-05-04 14:45 34.38020 31.28524 34918 ft 517 kts 133°
2026-05-04 14:46 34.33577 31.35359 34899 ft 517 kts 133°
2026-05-04 14:46 34.29124 31.42197 34923 ft 517 kts 133°
2026-05-04 14:47 34.24688 31.48994 34915 ft 518 kts 133°
2026-05-04 14:47 34.20227 31.55818 34918 ft 518 kts 134°
2026-05-04 14:48 34.15747 31.62657 34918 ft 519 kts 134°
2026-05-04 14:48 34.11256 31.69501 34915 ft 519 kts 134°
2026-05-04 14:49 34.06765 31.76332 34915 ft 520 kts 134°
2026-05-04 14:49 34.02271 31.83154 34918 ft 519 kts 134°
2026-05-04 14:50 33.97772 31.89972 34922 ft 519 kts 134°
2026-05-04 14:50 33.93275 31.96774 34923 ft 519 kts 134°
2026-05-04 14:51 33.88805 32.03525 34923 ft 518 kts 134°
2026-05-04 14:51 33.84313 32.10313 34916 ft 518 kts 134°
2026-05-04 14:52 33.79851 32.17114 34927 ft 517 kts 134°
2026-05-04 14:52 33.75392 32.23915 34929 ft 517 kts 134°
2026-05-04 14:53 33.70931 32.30699 34929 ft 517 kts 134°
2026-05-04 14:53 33.66471 32.37461 34922 ft 516 kts 134°
2026-05-04 14:54 33.62011 32.44211 34935 ft 516 kts 135°
2026-05-04 14:54 33.57573 32.50912 34938 ft 515 kts 135°
2026-05-04 14:55 33.53105 32.57650 34913 ft 515 kts 135°
2026-05-04 14:55 33.48647 32.64360 34931 ft 514 kts 135°
2026-05-04 14:56 33.44196 32.71045 34937 ft 513 kts 136°
2026-05-04 14:56 33.39738 32.77728 34738 ft 517 kts 136°
2026-05-04 14:57 33.37479 32.81104 34145 ft 521 kts 136°
2026-05-04 14:57 33.35220 32.84483 33483 ft 520 kts 136°
2026-05-04 14:57 33.32958 32.87865 32779 ft 521 kts 136°
2026-05-04 14:57 33.30692 32.91252 32074 ft 521 kts 136°
2026-05-04 14:58 33.28426 32.94635 31394 ft 522 kts 136°
2026-05-04 14:58 33.26159 32.98014 30694 ft 523 kts 137°
2026-05-04 14:58 33.23877 33.01410 29926 ft 525 kts 137°
2026-05-04 14:58 33.21583 33.04820 29063 ft 527 kts 136°
2026-05-04 14:59 33.19290 33.08229 28411 ft 524 kts 136°
2026-05-04 14:59 33.17024 33.11602 27874 ft 518 kts 136°
2026-05-04 14:59 33.12551 33.18249 26755 ft 508 kts 136°
2026-05-04 15:00 33.10352 33.21509 26245 ft 502 kts 136°
2026-05-04 15:00 33.08169 33.24738 25721 ft 498 kts 136°
2026-05-04 15:00 33.06001 33.27941 25210 ft 494 kts 136°
2026-05-04 15:01 33.01716 33.34264 24151 ft 487 kts 136°
2026-05-04 15:01 32.99617 33.37358 23632 ft 484 kts 136°
2026-05-04 15:01 32.97477 33.40508 23022 ft 481 kts 136°
2026-05-04 15:01 32.95408 33.43553 22469 ft 477 kts 136°
2026-05-04 15:02 32.93304 33.46650 21932 ft 472 kts 136°
2026-05-04 15:02 32.91276 33.49632 21415 ft 468 kts 135°
2026-05-04 15:02 32.89235 33.52628 20915 ft 463 kts 135°
2026-05-04 15:02 32.87216 33.55591 20416 ft 459 kts 135°
2026-05-04 15:03 32.85217 33.58521 19919 ft 454 kts 135°
2026-05-04 15:03 32.83231 33.61430 19410 ft 451 kts 135°
2026-05-04 15:03 32.81201 33.64243 18895 ft 445 kts 138°
2026-05-04 15:03 32.79087 33.66906 18401 ft 441 kts 140°
2026-05-04 15:04 32.76956 33.69494 17821 ft 437 kts 141°
2026-05-04 15:04 32.74830 33.72057 17283 ft 433 kts 141°
2026-05-04 15:04 32.72735 33.74597 16823 ft 428 kts 141°
2026-05-04 15:04 32.70667 33.77120 16332 ft 425 kts 140°
2026-05-04 15:05 32.68620 33.79632 15857 ft 420 kts 140°
2026-05-04 15:05 32.66600 33.82118 15388 ft 416 kts 140°
2026-05-04 15:05 32.64598 33.84581 14928 ft 412 kts 139°
2026-05-04 15:05 32.62619 33.87017 14467 ft 408 kts 139°
2026-05-04 15:06 32.60654 33.89432 14014 ft 405 kts 139°
2026-05-04 15:06 32.58703 33.91827 13520 ft 402 kts 138°
2026-05-04 15:06 32.56773 33.94196 13018 ft 398 kts 138°
2026-05-04 15:07 32.53021 33.98854 12387 ft 383 kts 138°
2026-05-04 15:07 32.51219 34.01108 12111 ft 379 kts 138°
2026-05-04 15:07 32.49416 34.03360 11834 ft 377 kts 138°
2026-05-04 15:07 32.47606 34.05615 11557 ft 375 kts 138°
2026-05-04 15:08 32.45819 34.07842 11277 ft 368 kts 138°
2026-05-04 15:08 32.44073 34.10022 11004 ft 362 kts 137°
2026-05-04 15:08 32.42701 34.12513 10710 ft 365 kts 113°
2026-05-04 15:08 32.42042 34.15388 10494 ft 360 kts 104°
2026-05-04 15:09 32.41548 34.18276 10221 ft 355 kts 103°
2026-05-04 15:09 32.41079 34.21124 9957 ft 351 kts 103°
2026-05-04 15:09 32.40606 34.23913 9882 ft 339 kts 103°
2026-05-04 15:10 32.39680 34.29143 9926 ft 309 kts 104°
2026-05-04 15:10 32.39246 34.31556 9804 ft 292 kts 104°
2026-05-04 15:10 32.38451 34.35956 9504 ft 259 kts 105°
2026-05-04 15:11 32.38078 34.38011 9157 ft 253 kts 105°
2026-05-04 15:11 32.37707 34.40046 8784 ft 253 kts 104°
2026-05-04 15:11 32.37340 34.42067 8511 ft 249 kts 104°
2026-05-04 15:11 32.36980 34.44050 8361 ft 244 kts 104°
2026-05-04 15:12 32.36626 34.46000 8247 ft 243 kts 105°
2026-05-04 15:12 32.36267 34.47966 8158 ft 246 kts 105°
2026-05-04 15:12 32.35898 34.49950 8052 ft 248 kts 109°
2026-05-04 15:12 32.35083 34.51674 7834 ft 236 kts 146°
2026-05-04 15:13 32.33709 34.52547 7712 ft 219 kts 170°
2026-05-04 15:13 32.32247 34.52893 7546 ft 213 kts 181°
2026-05-04 15:13 32.30772 34.53087 7362 ft 214 kts 181°
2026-05-04 15:13 32.29287 34.53284 7168 ft 215 kts 181°
2026-05-04 15:14 32.27813 34.53489 6960 ft 211 kts 181°
2026-05-04 15:14 32.26369 34.53697 6737 ft 207 kts 181°
2026-05-04 15:14 32.24964 34.53992 6513 ft 210 kts 164°
2026-05-04 15:14 32.23893 34.55215 6300 ft 225 kts 118°
2026-05-04 15:15 32.23343 34.56932 6150 ft 223 kts 116°
2026-05-04 15:15 32.22844 34.58656 5940 ft 228 kts 103°
2026-05-04 15:15 32.23057 34.60492 5694 ft 231 kts 60°
2026-05-04 15:16 32.24636 34.63765 5478 ft 228 kts 58°
2026-05-04 15:16 32.25416 34.65408 5338 ft 229 kts 58°
2026-05-04 15:16 32.26962 34.68684 5050 ft 228 kts 58°
2026-05-04 15:17 32.27735 34.70327 4982 ft 228 kts 59°
2026-05-04 15:17 32.27690 34.73848 4976 ft 223 kts 118°
2026-05-04 15:17 32.27068 34.75526 5029 ft 218 kts 118°
2026-05-04 15:18 32.26458 34.77182 5052 ft 224 kts 118°
2026-05-04 15:18 32.25835 34.78872 4989 ft 224 kts 117°
2026-05-04 15:18 32.25185 34.80559 4786 ft 225 kts 123°
2026-05-04 15:19 32.23596 34.83669 4370 ft 216 kts 127°
2026-05-04 15:19 32.22819 34.85157 4153 ft 209 kts 127°
2026-05-04 15:19 32.21328 34.88030 3728 ft 204 kts 126°
2026-05-04 15:20 32.20592 34.89454 3554 ft 206 kts 126°
2026-05-04 15:20 32.19847 34.90904 3387 ft 207 kts 126°
2026-05-04 15:20 32.19104 34.92354 3189 ft 204 kts 126°
2026-05-04 15:20 32.18371 34.93784 3028 ft 201 kts 126°
2026-05-04 15:21 32.17651 34.95186 2863 ft 203 kts 125°
2026-05-04 15:21 32.16925 34.96604 2758 ft 201 kts 126°
2026-05-04 15:21 32.14945 34.98292 2577 ft 166 kts 203°
2026-05-04 15:22 32.13924 34.97721 2595 ft 167 kts 212°
2026-05-04 15:22 32.12859 34.97140 2567 ft 169 kts 213°
2026-05-04 15:22 32.10754 34.95824 2182 ft 165 kts 215°
2026-05-04 15:23 32.09773 34.95190 1942 ft 154 kts 216°
2026-05-04 15:23 32.08844 34.94585 1734 ft 152 kts 217°
2026-05-04 15:23 32.07928 34.93990 1527 ft 149 kts 217°
2026-05-04 15:23 32.07012 34.93395 1329 ft 152 kts 217°
2026-05-04 15:24 32.05144 34.92193 877 ft 148 kts 216°
2026-05-04 15:24 32.03416 34.91056 518 ft 138 kts 214°
2026-05-04 15:25 32.02557 34.90504 374 ft 142 kts 212°
2026-05-04 15:25 32.01666 34.89930 170 ft 146 kts 214°
2026-05-04 15:25 32.00829 34.89392 121 ft 126 kts 207°
2026-05-04 15:26 32.00061 34.89001 118 ft 0 kts 180°
2026-05-04 15:28 32.00058 34.89001 119 ft 2 kts 180°
2026-05-04 15:28 31.99976 34.89042 117 ft 13 kts 131°
2026-05-04 15:29 31.99919 34.89127 119 ft 12 kts 143°
2026-05-04 15:30 31.99583 34.89087 116 ft 12 kts 110°
2026-05-04 15:30 31.99568 34.89142 115 ft 0 kts 108°